www.pogodaiklimat.ru

Погода и климат >> Архив погоды >> Россия >> Приморский край >> Рудная Пристань


ПОГОДА в Рудной Пристани

  • Прогноз погоды в Рудной Пристани
  • Монитор погоды в Рудной Пристани
  • Климат города

АРХИВ ПОГОДЫ в Рудной Пристани

Время (UTC), дата Ветер
(напр.,м/с)
 
Видим.   Явления Облачность Т
(С)
Тd
(С)
f
(%)
Тe
(С)
Тes
(С)
Комфортность P
(гПа)
Po
(гПа)
Тmin
(С)
Tmax
(С)
R
(мм)
R24
(мм)
S
(см)
00 10.08 В 2 20 км 10/10 600 м
[Cb cap]
+19.3 +16.1 82 +22 +22 комфорт 1008.5 1004.6
03 10.08 В 4 20 км 10/10 600 м
[Cb cap]
+20.3 +16.2 77 +23 +23 комфорт 1008.9 1005.0
06 10.08 В 4 20 км 10/8 600 м
[Cb cap As op]
+20.1 +16.5 80 +23 +23 комфорт 1008.8 1004.8
09 10.08 В 2 20 км 10/8 600 м
[Cb cap Ac und]
+18.9 +15.7 82 +21 +21 комфорт 1009.4 1005.4 +21.6
12 10.08 В 1 20 км 10/8 600 м
[Cb cap Ac und]
+18.4 +14.8 80 +20 +20 1010.3 1006.4
15 10.08 В 1 20 км 10/8 600 м
[Cb cap Ac und]
+18.4 +14.6 79 +20 +20 1010.2 1006.2
18 10.08 З 1 20 км 10/8 600 м
[Cb cap Ac und]
+17.1 +15.7 91 +18 +18 1010.5 1006.5
21 10.08 штиль 0 20 км 10/8 600 м
[Cb cap As op]
+18.0 +16.2 89 +18 +18 1010.6 1006.6 +17.1
00 11.08 В 2 20 км 10/8 600 м
[Cb cap As op]
+18.6 +16.6 88 +20 +20 1011.1 1007.1
03 11.08 В 4 20 км 10/8 600 м
[Cb cap As trans]
+20.1 +16.5 80 +23 +24 комфорт 1010.7 1006.7
06 11.08 В 4-10
{11}
20 км 10/8 600 м
[Cb cap As trans]
+19.1 +16.4 84 +21 +21 комфорт 1010.8 1006.9
09 11.08 В 3
{10}
20 км 9/3 600 м
[Cb cap Ac trans Ci sp]
+19.4 +15.2 77 +21 +22 комфорт 1011.2 1007.2 +20.7
12 11.08 В 1 20 км 10/8 600 м
[Cb cap Ac und]
+18.1 +15.3 84 +19 +19 1012.1 1008.1
15 11.08 В 1 20 км 10/8 600 м
[Cb cap Ac und]
+18.2 +15.1 82 +20 +20 1012.0 1008.0
18 11.08 СЗ 1 20 км 10/6 600 м
[Cb cap Ac und]
+17.5 +15.7 89 +19 +19 1012.5 1008.5
21 11.08 штиль 0 20 км 10/8 600 м
[Cb cap Ac und]
+17.8 +15.1 84 +18 +18 1012.4 1008.4 +17.3
00 12.08 В 3 20 км 10/8 600 м
[Cb cap Ac und]
+18.6 +14.6 78 +20 +20 1013.8 1009.8
03 12.08 В 4
{11}
20 км 10/8 600 м
[Cb cap Ac und]
+19.1 +13.9 72 +20 +21 1013.8 1009.8
06 12.08 В 4 20 км 10/8 600 м
[Cb cap Ac trans Ci sp]
+19.1 +14.0 72 +20 +21 1013.6 1009.6
09 12.08 В 3
{10}
20 км 10/8 600 м
[Cb cap Ac trans Ci sp]
+17.5 +13.8 79 +18 +18 1014.0 1010.0 +19.9
12 12.08 В 1 20 км 10/8 600 м
[Cb cap Ac und]
+17.1 +13.0 77 +18 +18 1015.4 1011.4
15 12.08 СВ 1 20 км 10/8 600 м
[Cb cap Ac und]
+16.6 +12.8 78 +17 +17 1015.3 1011.3
18 12.08 СВ 1 20 км 10/6 600 м
[Cb cap Ac und]
+15.6 +13.5 87 +16 +16 1015.0 1010.9
21 12.08 штиль 0 20 км 9/8 600 м
[Cb cap Ac trans]
+15.9 +13.4 85 +16 +16 1015.2 1011.2 +14.6
00 13.08 В 2 20 км 9/6 600 м
[Cb cap Ac trans]
+17.7 +13.7 77 +18 +20 1015.6 1011.6
03 13.08 В 3 20 км 9/8 600 м
[Cb cap Ac trans]
+18.2 +14.2 77 +19 +21 1015.1 1011.1
06 13.08 В 3 20 км 9/8 600 м
[Cb cap Ac trans]
+17.5 +14.1 80 +18 +19 1014.3 1010.3
09 13.08 В 2 20 км 9/8 600 м
[Cb cap Ac trans]
+17.1 +13.5 79 +17 +18 1014.6 1010.6 +19.2
12 13.08 СЗ 1 20 км 10/8 600 м
[Cb cap Ac und]
+16.2 +13.4 83 +17 +17 1015.0 1011.0
15 13.08 З 1 20 км 10/8 600 м
[Cb cap Ac und]
+15.6 +13.7 88 +16 +16 1014.8 1010.8
18 13.08 штиль 0 20 км 10/6 600 м
[Cb cap Ac und]
+15.1 +14.0 93 +15 +15 1013.9 1009.9
21 13.08 З 1 20 км 9/8 600 м
[Cb cap Ac trans]
+14.9 +14.2 96 +15 +15 1013.6 1009.6 +14.1
00 14.08 ЮВ 1 20 км 10/8 600 м
[Cb cap Ac und]
+17.6 +12.8 73 +19 +19 1013.6 1009.6
03 14.08 ЮВ 1 20 км 10/6 600 м
[Cb cap Ac und]
+17.7 +12.8 73 +19 +21 1013.5 1009.5
06 14.08 ЮВ 2 20 км 9/6 600 м
[Cb cap Ac trans]
+19.1 +13.6 70 +21 +23 комфорт 1012.9 1008.9
09 14.08 В 1 20 км 9/8 600 м
[Cb cap Ac trans]
+17.6 +13.9 79 +19 +19 1012.6 1008.6 +19.4
12 14.08 СЗ 1 20 км 10/8 600 м
[Cb cap Ac und]
+16.4 +14.4 88 +17 +17 1013.0 1009.0
15 14.08 З 1 20 км 8/4 600 м
[Sc diur, vesp Ac trans]
+13.7 +13.1 96 +14 +14 1012.3 1008.2
18 14.08 З 1 20 км 9/6 600 м
[Sc diur, vesp Ac trans]
+14.0 +13.6 97 +14 +14 1012.3 1008.2
21 14.08 З 1 20 км 6/3 600 м
[Sc Ac lent Ci fib]
+13.3 +13.0 98 +13 +14 1012.8 1008.8 +13.1
00 15.08 ЮВ 2 50 км 3/1 600 м
[Sc Ci fib]
+18.2 +14.2 77 +19 +27 1012.6 1008.6
03 15.08 В 4 50 км 3/3 600 м
[Cu Sc Ci fib]
+19.7 +14.4 71 +22 +29 комфорт 1012.7 1008.7
06 15.08 ЮВ 3 50 км 4/3 600 м
[Cu Sc Ci fib]
+19.0 +14.9 77 +20 +26 1012.1 1008.1
09 15.08 В 3 20 км 3/1 600 м
[Sc diur, vesp Ac lent Ci fib]
+17.8 +14.6 82 +18 +18 1012.3 1008.4 +20.3
12 15.08 З 1 20 км 3/3 600 м
[Sc]
+15.2 +13.5 90 +16 +16 1012.9 1008.9
15 15.08 З 1 20 км 3/3 600 м
[Sc]
+14.3 +13.6 96 +15 +15 1012.6 1008.6
18 15.08 СЗ 1 10 км слабый ливневой дождь 10/8 300 м
[Cb cap As op]
+15.4 +15.1 98 +16 +16 1013.0 1009.0
21 15.08 штиль 0 10 км слабый ливневой дождь 10/8 300 м
[Cb cap As op]
+15.7 +15.5 99 +15 +15 1013.6 1009.6 +14.0 4
00 16.08 ЮЗ 1 20 км {ливн. осадки} 10/8 600 м
[Cb cap Ac und]
+17.4 +16.4 94 +18 +19 1013.8 1009.8
03 16.08 В 3 20 км 10/8 600 м
[Cb cap Ac und]
+19.3 +15.8 80 +21 +22 комфорт 1013.8 1009.8
06 16.08 В 3 20 км 9/8 600 м
[Cb cap Ac trans]
+19.0 +16.1 83 +21 +22 комфорт 1013.7 1009.7
09 16.08 В 3 20 км 9/8 600 м
[Cb cap Ac trans]
+17.8 +15.0 84 +18 +18 1013.6 1009.6 +19.7 0.1
12 16.08 штиль 0 20 км 9/8 600 м
[Cb cap Ac trans]
+16.3 +13.9 86 +16 +16 1014.8 1010.8
15 16.08 В 1 20 км 9/6 600 м
[Cb cap Ac trans]
+15.5 +12.8 84 +16 +16 1015.0 1011.0
18 16.08 З 2 20 км 8/4 600 м
[Cb cap Ac trans Ci sp]
+12.1 +11.8 98 +11 +11 1014.9 1010.8
21 16.08 З 1 20 км 9/8 600 м
[Cb cap Ac trans]
+12.9 +12.6 98 +13 +13 1015.4 1011.3 +11.9

 

Местоположение метеостанции Рудная Пристань (Приморский край, Россия): широта 44.37 долгота 135.80 высота над уровнем моря 34 м.

В архиве по умолчанию представлена погода в Рудной Пристани за последнюю неделю. Архивные данные за месяц целиком и за предыдущие месяцы, начиная с января 2011 года, Вы можете получить, выбрав интересующий диапазон дат из раскрывающегося списка и нажав кнопку "Ввод!".

Внимание! Время в таблицах - всемирное. Для получения местного времени необходимо прибавить поправку, которая в Рудной Пристани равна 10 ч.

Смотрите также архив погоды в соседних городах и на ближайших метеорологических станциях:

Погода в Богополе (Приморский край, Россия) (35 км)
Погода в Кавалерово (Приморский край, Россия) (65 км)
Погода в Ольге (Приморский край, Россия) (80 км)
Погода в Тернее (Приморский край, Россия) (94 км)
Погода в Мельничном (Приморский край, Россия) (122 км)
Погода в Малой Кеме (Приморский край, Россия) (154 км)
Погода в Чугуевке (Приморский край, Россия) (161 км)
Погода в Малиново (Приморский край, Россия) (172 км)
Погода в Глубинном (Приморский край, Россия) (193 км)
Погода в Лазо (Приморский край, Россия) (193 км)

Пояснения к столбцам:

Ветер - указаны скорость ветра в м/с - средняя за 10 мин, порывы в срок и между сроками (в фигурных скобках) и направление, откуда дует ветер: С - северный, СВ - северо-восточный, В - восточный, ЮВ - юго-восточный, Ю - южный, ЮЗ - юго-западный, З - западный, СЗ - северо-западный.
Видимость - горизонтальная дальность видимости в метрах или километрах. При видимости от 1 до 10 км при отсутствии осадков обычно наблюдается дымка, при ухудшении видимости до 1 км и менее - туман. В сухую погоду видимость может ухудшаться дымом, пылью или мглою.
Явления - указаны атмосферные явления, наблюдавшиеся в срок или в последний час перед сроком; фигурными скобками обозначены явления, наблюдавшиеся между сроками (за 1-3 часа до срока); квадратными скобками обозначены град или гололедные отложения с указанием их диаметра в мм.
Облачность - указаны через наклонную черту общая и нижняя облачность в баллах и высота нижней границы облаков в метрах; квадратными скобками обозначены формы облаков: Ci - перистые, Cs - перисто-слоистые, Cc - перисто-кучевые, Ac - высококучевые, As - высокослоистые, Sc - слоисто-кучевые, Ns - слоисто-дождевые, Cu - кучевые, Cb - кучево-дождевые. Подробнее классификацию облаков см. в Атласе облаков (PDF).
T - Температура воздуха - температура, измеренная на высоте 2 м над землей.
Td - Температура точки росы - температура, при понижении до которой содержащийся в воздухе водяной пар достигнет насыщения.
f - Относительная влажность воздуха - влажноcть воздуха, измеренная на высоте 2 м над землей.
Te - Эффективная температура - температура, которую ощущает одетый по сезону человек в тени. Характеристика душности погоды. При расчете учитывается влияние влажности воздуха и скорости ветра на теплоощущения человека.
Tes - Эффективная температура на солнце - температура, которую ощущает человек, с поправкой на солнечный нагрев. Характеристика знойности погоды. Зависит от высоты солнца над горизонтом, облачности и скорости ветра. Ночью, в пасмурную погоду, а также при ветре 12 м/с и более поправка равна нулю.
P - Атмосферное давление - приведенное к уровню моря атмосферное давление.
Po - Атмосферное давление - измеренное на уровне метеостанции атмосферное давление.
Tmin - Минимальная температура - минимум температуры воздуха на высоте 2 м над землей.
Tmax - Максимальная температура - максимум температуры воздуха на высоте 2 м над землей.
R - Количество осадков - Количество выпавших осадков за период времени, мм. При наведении курсора мыши на число - период времени, за который выпало указанное количество осадков.
R24 - Количество осадков - Количество выпавших осадков за 24 часа, мм.
S - Снежный покров - Высота снежного покрова, см. При наведении курсора мыши на число - состояние снежного покрова и степень покрытия местности в баллах.